COSMOS 1375 DEB, 18507

Orbit data source: Space-Track

COSMOS 1375 DEB, 18507 is space debris in LEO originally from a launch on Sun, 06 Jun 1982 UTC launched from the Plesetsk Missile And Space Complex (PKMTR). Debris objects in space refer to the collection of defunct objects orbiting the Earth. Examples of debris include non-operational satellites, rocket bodies, and fragments generated from explosions, collisions, or faulty payload assembly.

Loading next visibility...
Identifier
18507, 1982-055BG
Orbit
LEO
Country
Flag of CISCIS
Related business
Manufacturer
Unknown
Mission
Spacecraft
Bus & Motor
Unknown
Mass
Unknown
Launch date (UTC)
1982-06-06 (44 years ago)
Launch vehicle
Unknown
Launch site
Plesetsk Missile And Space Complex (PKMTR)
Object type
Payload
Rocket body
Debris
Shape & HBR
Unknown shape, 0.3 m
Radar Cross Section
Medium (>0.1 m² and <1 m²)

Expand to show TLE details & history
Last TLE update: 2 days ago

TLE from 2 days ago
0 COSMOS 1375 DEB
1 18507U 82055BG  26171.38307475 -.00000065  00000-0  16645-4 0  9993
2 18507  65.8324 220.3070 0035470  61.2510 311.4290 13.66311496197523
Epoch: 2026-06-20T09:11Z
TLE epoch observation values (Epoch: 2026-06-20T09:11:37.658Z)
Latitude
11.2449°
Longitude
178.8936°
Altitude
996.769 km
Speed
7.363 km/s
True Right ascension
15h 01m 35s
True Declination
11° 10' 53"
Sunlit
Object was in full shadow at epoch
Visualization orbit readout
Latitude
Unknown
Longitude
Unknown
Altitude
Unknown
Speed
Unknown
Apparent Right ascension
Unknown
Apparent Declination
Unknown
Sunlit
N/A
Visualization observer readout
Local Sidereal Time
02:00:07
Azimuth
Unknown
Elevation
Unknown
Doppler factor
Unknown
Orbital elements
Apogee altitude
1,037.577 km
Perigee altitude
985.156 km
Semi-major axis
7,389.503 km
Eccentricity
0.00355
Inclination
65.8324°
RAAN
220.307°
Arg. of periapsis
61.251°
True anomaly
311.12335°
Mean anomaly
311.429°
Eccentric anomaly
311.27627°
Mean motion
3.41681 °/min
Orbital period
105.36 mins
BSTAR
0.000016645
Loading maneuver chart data...
Computing Atmospheric mass density...
Loading historical data...
Loading historical data...
Loading historical data...
Loading historical data...
Loading historical data...
Loading historical data...
Loading historical data...

Documentation

Showing up to 5 results
|